Location: Lake Almanor
(40.2485°N, 121.1442°W)
Time: 22:58:52
(UTC-08:00)

STARLINK-1091 - Pass Details

Date: 31 January 2020
Orbit: 349 x 351 km, 53.0° (Epoch: 22 February)

Event Time Altitude Azimuth Distance (km) Brightness Sun altitude
Rises 18:06:55 0° 315° (NW) 2,173 7.1 -9.0°
Reaches altitude 10° 18:09:03 10° 326° (NW) 1,327 5.8 -9.4°
Maximum altitude 18:11:46 32° 32° (NNE) 633 3.6 -9.9°
Enters shadow 18:13:43 16° 91° (E) 1,049 4.5 -10.3°
